Location: Stoke Bliss
(52.2667°N, 2.5167°W)
Time: 14:43:16
(UTC+00:00)

USA 308 - Pass Details

Date: 03 March 2021
Orbit: 568 x 576 km, 54.0° (Epoch: 13 April)

Event Time Altitude Azimuth Distance (km) Brightness Sun altitude
Rises 20:05:05 0° 279° (W) 2,778 7.9 -20.7°
Reaches altitude 10° 20:07:21 10° 282° (WNW) 1,878 6.7 -21.1°
Maximum altitude 20:11:37 72° 7° (N) 604 2.9 -21.7°
Enters shadow 20:12:07 63° 56° (NE) 638 2.9 -21.8°
